Погода в Понике

Россия / Ульяновская область     53°11′20″N   47°09′08″E
темп.,
°C
ветер,
м/с
пор.,
м/с
влажн.,
%
обл.,
%
осадки,
мм/ч
давл.,
гПа
погр.,
м
15 мая, сб
сб1501:00+17юв337099 0.0 101835
04:00+15ююв336316 0.0 101833
07:00+18юв25626 0.0 1019122
10:00+24ююв610405 0.0 1019538
13:00+27ю7103275 0.0 1018996
16:00+28ю6113674 0.0 10181549
19:00+24ю495177 0.0 1017179
22:00+19ююв36545 0.0 101780
16 мая, вс
вс1601:00+17ююв365377 0.0 101787
04:00+16ююв335884 0.0 101743
07:00+18ююв136252 0.0 101798
10:00+24ю464499 0.0 1017497
13:00+27ю673519 0.0 10171333
16:00+27ююз5738100 0.0 10171930
19:00+24ю2249100 0.0 101618
22:00+19ююз1154100 0.0 101711
17 мая, пн
пн1701:00+18ююв1155100 0.0 101711
04:00+17вюв116082 0.0 101711
07:00+20вюв1160100 0.0 101822
10:00+25юв4649100 0.0 1018383
13:00+29ю582754 0.0 10182807
16:00+29ю4730100 0.0 10172981
19:00+25юв224649 0.0 101711
22:00+20юв2249100 0.0 101812
18 мая, вт
вт1801:00+18вюв115171 0.0 101811
04:00+16вюв2251100 0.0 101712
07:00+18вюв2358100 0.0 101789
10:00+23юв5844100 0.0 1016450
13:00+27юв673678 0.0 1016799
16:00+29юв573794 0.0 10151589
19:00+25вюв364841 0.0 101499
22:00+20вюв224845 0.0 101512
19 мая, ср
ср1901:00+18в22505 0.0 101415
04:00+17вюв224850 0.0 101416
07:00+18вюв3125820 0.0 1014309
10:00+24юв611436 0.0 1013703
13:00+28ююв811365 0.0 10121842
16:00+29ююв693477 0.0 10112276
19:00+17св2380100 5.0 101269
22:00+17ю3472100 5.1 101266